Tracking 18785 objects as of 20-August-2017
HD Live streaming from Space Station
objects crossing your sky now

ERS 1

Track ERS 1 now!
10-day predictions
ERS 1 is classified as:


NORAD ID: 21574
Int'l Code: 1991-050A
Perigee: 749.3 km
Apogee: 797.8 km
Inclination: 98.5 °
Period: 100.2 minutes
Semi major axis: 7144 km
RCS: 11.0086 m2 (large)
Launch date: July 17, 1991
Source: European Space Agency (ESA)
Launch site: FRENCH GUIANA (FRGUI)
Your satellite tracking list
Your tracking list is empty





NASA's NSSDC Master Catalog

Two Line Element Set (TLE):
1 21574U 91050A   17231.94988883  .00000058  00000-0  33512-4 0  9996
2 21574  98.4634 178.1088 0033937 123.2810 237.1635 14.37599580366755
Source of the keplerian elements: AFSPC